Location: Czekan�w
(50.3488°N, 18.7344°E)
Time: 06:55:55
(UTC+00:00)

Cosmos 1943 - Pass Details

Date: 17 February 2020
Orbit: 832 x 851 km, 71.0° (Epoch: 30 March)

Event Time Altitude Azimuth Distance (km) Brightness Sun altitude
Rises 05:00:37 0° 214° (SW) 3,367 6.1 -9.1°
Reaches altitude 10° 05:03:03 10° 217° (SW) 2,438 5.3 -8.7°
Maximum altitude 05:08:38 72° 302° (WNW) 883 3.2 -7.8°
Drops below altitude 10° 05:14:17 10° 27° (NNE) 2,464 5.8 -7.0°
Sets 05:16:45 0° 29° (NNE) 3,405 6.6 -6.6°
